{"data":{"norad_id":45741,"epoch":"2026-09-19T19:22:23.579040Z","epoch_age_seconds":81769,"freshness":"FRESH","line1":"1 45741U 20038M   26262.80721735  .00067364  00000+0  40349-3 0  9993","line2":"2 45741  53.0485 344.5970 0005387   8.4918 351.6192 15.77200033346876","mean_motion":15.77200033,"eccentricity":0.0005387,"inclination_deg":53.0485,"raan_deg":344.597,"arg_perigee_deg":8.4918,"mean_anomaly_deg":351.6192,"bstar":0.00040349,"rev_number":34687,"period_min":91.301037907092,"perigee_km":334.75982368105,"apogee_km":341.99619695316,"semimajor_km":6716.5150103171,"source":"CELESTRAK","updated_at":"2026-09-20T09:00:38.456006Z"}}